User: anonymous   Login
Location: South Tamworth Observatory
(43.8246°N, 71.3026°W)
Time: 07:04:07
(UTC-04:00)
Language:

Cosmos 1844 - Orbit

View from above orbital plane
View from above orbital plane
View from above satellite
View from above satellite

Ground track
Ground track

The orbit data is extracted from the following two-line orbital elements,

1 17973U 87041A   17145.56564515 -.00000225 +00000-0 -92444-4 0  9990
2 17973 070.8980 321.2438 0030285 164.0998 196.1082 14.14053328549746
Epoch (UTC): 25 May 2017 13:34:31
Eccentricity: 0.0030285
inclination: 70.8980°
perigee height: 823 km
apogee height: 867 km
right ascension of ascending node: 321.2438°
argument of perigee: 164.0998°
revolutions per day: 14.14053328
mean anomaly at epoch: 196.1082°
orbit number at epoch: 54974

The dashed part of the orbit path shows where the satellite is in the earth's shadow,  

DLR